Simultaneous Nadir Overpasses (SNOs) Predictions

Prediction of SNOs between LANDSAT-8 and NOAA-19 Satellite Orbit:

Table of predicted SNOs for the next 14.0 days since TLE Epoch: 1/12/2019
Index Date (LANDSAT-8) Time (LANDSAT-8) Lat,Lon (LANDSAT-8) SZA (LANDSAT-8 ) Date (NOAA-19) Time (NOAA-19) Lat,Lon (NOAA-19) SZA (NOAA-19 ) Distance(km) Time Diff (sec)
1 01/13/2019 07:38:47 -78.36, -97.48 79.82 01/13/2019 07:38:41 -78.34, -97.45 79.85 2.95 6
2 01/15/2019 13:12:30 78.36, -0.95 99.77 01/15/2019 13:12:13 78.37, -0.98 99.78 2.03 17
3 01/15/2019 14:01:58 -78.33, 166.56 80.27 01/15/2019 14:03:11 -78.33, 166.56 80.26 0.23 73
4 01/17/2019 18:46:14 -78.38, 95.73 80.64 01/17/2019 18:45:42 -78.39, 95.61 80.64 3.03 32
5 01/17/2019 19:35:41 78.32, -96.92 99.28 01/17/2019 19:36:42 78.35, -96.89 99.33 3.77 61
6 01/20/2019 00:19:56 78.41,-167.55 98.93 01/20/2019 00:19:11 78.37,-167.53 98.88 4.41 45
7 01/20/2019 01:09:25 -78.34, -0.24 81.16 01/20/2019 01:10:11 -78.35, -0.16 81.14 1.95 46
8 01/22/2019 05:53:41 -78.39, -71.09 81.60 01/22/2019 05:52:42 -78.42, -71.13 81.59 3.24 59
9 01/22/2019 06:43:07 78.37, 96.45 98.37 01/22/2019 06:43:40 78.35, 96.55 98.37 2.85 33
10 01/24/2019 11:27:23 78.41, 25.60 97.90 01/24/2019 11:26:10 78.41, 25.66 97.89 1.53 73




NCC Satellite Simultaneous Nadir Overpasses (SNOs) Prediction Service
